Location: Minneapolis
(45.0000°N, 93.0000°W)
Time: 08:50:32
(UTC-06:00)

Tiangong 2 - Visible Passes

Search period start: 20 January 2018 00:00
Search period end: 30 January 2018 00:00
Orbit: 384 x 390 km, 42.8° (Epoch: 20 January)

Date Brightness Start Highest point End Pass type
(mag) Time Alt. Az. Time Alt. Az. Time Alt. Az.
20 Jan 3.3 05:24:55 21° SE 05:24:55 21° SE 05:27:07 10° ESE visible
20 Jan 1.8 06:57:55 10° WSW 07:01:01 52° S 07:04:09 10° E visible
21 Jan 2.0 06:01:26 32° SSW 06:02:23 42° SSE 06:05:26 10° E visible
22 Jan 3.9 05:05:34 18° ESE 05:05:34 18° ESE 05:06:39 10° E visible
22 Jan 1.5 06:37:50 15° WSW 06:40:20 58° S 06:43:28 10° E visible
23 Jan 1.7 05:41:53 51° SSE 05:41:53 51° SSE 05:44:46 10° E visible
24 Jan 4.7 04:45:54 11° E 04:45:54 11° E 04:46:03 10° E visible
24 Jan 1.5 06:18:10 27° WSW 06:19:36 56° S 06:22:44 10° ESE visible
25 Jan 2.9 05:22:08 32° ESE 05:22:08 32° ESE 05:24:03 10° E visible
25 Jan 2.2 06:54:32 10° W 06:57:30 36° SSW 07:00:28 10° SE visible
26 Jan 1.6 05:58:23 43° SW 05:58:50 47° S 06:01:55 10° ESE visible
27 Jan 4.0 05:02:21 17° ESE 05:02:21 17° ESE 05:03:16 10° ESE visible
27 Jan 2.6 06:34:37 14° WSW 06:36:38 26° SSW 06:39:21 10° SE visible
28 Jan 2.4 05:38:37 32° S 05:38:37 32° S 05:40:58 10° SE visible
29 Jan 3.1 06:14:55 16° SW 06:15:42 17° SSW 06:17:53 10° SSE visible
